Miscellaneous Local Product
Issued by NWS North Platte, NE

Home | Current Version | Previous Version | Text Only | Print | Product List | Glossary On
Versions: 1 2 3 4 5 6 7 8 9 10 11 12 13 14 15 16 17 18 19 20 21 22 23 24 25 26 27 28 29 30 31 32 33 34 35 36 37 38 39 40 41 42 43 44 45 46 47 48 49 50
000
AXUS43 KLBF 021310
MISLBF


WESTERN AND NORTH CENTRAL NEBRASKA HOURLY WEATHER ROUNDUP
NATIONAL WEATHER SERVICE NORTH PLATTE NE
800 AM CDT SUN AUG 02 2015

***STATIONS NOT REPORTING VARIABLES SUCH AS SKY/WEATHER OR
PRESSURE ARE PROVIDED BY THE NEBRASKA DEPARTMENT OF
ROADS...RAWS...AND APRS NETWORKS...AND ARE NOT UNDER
NATIONAL WEATHER SERVICE QUALITY CONTROL***

...OBSERVATIONS IN AND NEAR THE EASTERN PANHANDLE OF NEBRASKA...

CITY           SKY/WX    TMP DP  RH WIND       PRES   REMARKS
PINE RIDGE     SUNNY     60  55  83 CALM      29.95R
CHADRON        SUNNY     65  56  72 SE6       29.96R
ALLIANCE       SUNNY     59  55  87 W5        30.00R
SIDNEY         SUNNY     63  55  75 NW7       30.03R
BIG SPRINGS      N/A     60  58  95 CALM        N/A
$$

...OBSERVATIONS IN NORTH CENTRAL NEBRASKA...

CITY           SKY/WX    TMP DP  RH WIND       PRES   REMARKS
THEDFORD       SUNNY     62  59  89 CALM      29.94R
AINSWORTH      SUNNY     68  59  72 SW10      29.89S
O`NEILL        SUNNY     67  61  79 W7        29.85S
ORD            SUNNY     64  62  93 CALM      29.87R
BROKEN BOW     SUNNY     67  63  87 CALM      29.92R
SPRINGVIEW       N/A     62  60  93 CALM        N/A
CHAMBERS         N/A     73  62  68 SW3         N/A
EWING            N/A     65  63  94 CALM        N/A
$$

...OBSERVATIONS IN SOUTHWEST NEBRASKA AND FAR NORTHEAST COLORADO...

CITY           SKY/WX    TMP DP  RH WIND       PRES   REMARKS
WRAY           FAIR     N/A N/A N/A CALM      30.01R
IMPERIAL       SUNNY     66  60  81 W3        29.98R
OGALLALA       SUNNY     59  58  96 CALM      29.97R
NORTH PLATTE   SUNNY     61  58  90 CALM      29.94S
MCCOOK         SUNNY     68  63  84 SW3       29.95R
LEXINGTON      SUNNY     68  64  87 CALM      29.93S
PAXTON           N/A     61  59  92 CALM        N/A
BRADY            N/A     62  60  92 CALM        N/A
CALLAWAY         N/A     66  65  98 CALM        N/A
$$

...NORTH PLATTE AREA...

CITY           SKY/WX    TMP DP  RH WIND       PRES   REMARKS
AIRPORT        SUNNY     61  58  90 CALM      29.94S
DOWNTOWN         N/A     65  59  81 CALM        N/A
SANDRIDGE        N/A     65  58  78 CALM        N/A
HILLCREST        N/A     63  58  83 NW3         N/A
$$

...SOME WEATHER OBSERVATIONS FROM AROUND THE REGION...

CITY           SKY/WX    TMP DP  RH WIND       PRES   REMARKS
DENVER         PTSUNNY   68  54  60 W7        30.10R
LARAMIE        CLEAR     54  42  64 S9        30.24R
CHEYENNE       SUNNY     61  49  64 W8        30.14R
SCOTTSBLUFF    SUNNY     64  58  80 CALM      30.01R
RAPID CITY     SUNNY     67  45  45 N15       29.95R
PIERRE         SUNNY     70  62  76 NW9       29.80R
WINNER         FAIR      73  58  59 W6        29.84R
SIOUX FALLS    MOSUNNY   68  61  78 SW6       29.77S
OMAHA          MOSUNNY   75  70  84 S9        29.85R
GRAND ISLAND   SUNNY     74  65  73 SW10      29.90R
KANSAS CITY    MOSUNNY   75  69  81 SW9       29.93R
WICHITA        MOSUNNY   74  68  81 S6        29.96R
HAYS           SUNNY     72  63  73 S5        29.95S
LIBERAL        MOSUNNY   70  59  68 CALM      29.97R
GOODLAND       PTSUNNY   68  66  93 S6        30.01R
$$



USA.gov is the U.S. government's official web portal to all federal, state and local government web resources and services.